Terug naar catalogus

CZ-6A DEB

ActiefPO
NORAD 55190·DEBRIS·🇨🇳 China

Gelanceerd Nov 11, 2022 vanaf Taiyuan Satellite Launch Center

Loading…

Volgende Passages (komende 24 uur)

TLE

VersSource: Space-Track

Epoch: Sep 14, 2026, 16:39 UTC

1 55190U 22151VF  26257.69414711  .00012198  00000-0  14734-2 0  9998
2 55190  98.6344 339.9320 0056619 333.2066  26.6223 14.82768349198871

Volg CZ-6A DEB in realtime met AllMySat

Download on the App Store